******************************************************************************* JPL/HORIZONS 532037 Chiminigagua (2013 FY27) 2025-Dec-12 18:04:03 Rec #: 532037 (+COV) Soln.date: 2025-Apr-10_00:42:40 # obs: 139 (2011-2025) IAU76/J2000 helio. ecliptic osc. elements (au, days, deg., period=Julian yrs): EPOCH= 2457864.5 ! 2017-Apr-21.00 (TDB) Residual RMS= .11448 EC= .3916647205101159 QR= 35.88790727837637 TP= 2525575.907141929 OM= 187.1703133045093 W= 138.6060391018931 IN= 32.99057781326125 A= 58.99363145348065 MA= 212.7151024578246 ADIST= 82.09935562858493 PER= 453.12278 N= .002175186 ANGMOM= .121568992 DAN= 70.72402 DDN= 38.60194 L= 330.6944479 B= 21.1027749 MOID= 34.94449997 TP= 2202-Sep-10.4071419290 Asteroid physical parameters (km, seconds, rotational period in hours): GM= n.a. RAD= n.a. ROTPER= n.a. H= 3.09 G= .150 B-V= n.a. ALBEDO= n.a. STYP= n.a. ASTEROID comments: 1: soln ref.= JPL#18, OCC=4 2: source=ORB ******************************************************************************* ******************************************************************************* Ephemeris / WWW_USER Fri Dec 12 18:04:03 2025 Pasadena, USA / Horizons ******************************************************************************* Target body name: 532037 Chiminigagua (2013 FY27) {source: JPL#18} Center body name: Solar System Barycenter (0) {source: DE441} Center-site name: BODY CENTER ******************************************************************************* Start time : A.D. 2023-Feb-25 00:00:00.0000 TDB Stop time : A.D. 2023-Sep-13 00:00:00.0000 TDB Step-size : 1 calendar years ******************************************************************************* Center geodetic : 0.0, 0.0, 0.0 {E-lon(deg),Lat(deg),Alt(km)} Center cylindric: 0.0, 0.0, 0.0 {E-lon(deg),Dxy(km),Dz(km)} Center radii : (undefined) Keplerian GM : 2.9630927493968080E-04 au^3/d^2 Small perturbers: Yes {source: SB441-N16} Output units : AU-D, deg, Julian Day Number (Tp) Calendar mode : Mixed Julian/Gregorian Output type : GEOMETRIC osculating elements Output format : 10 Reference frame : Ecliptic of J2000.0 ******************************************************************************* Initial IAU76/J2000 heliocentric ecliptic osculating elements (au, days, deg.): EPOCH= 2457864.5 ! 2017-Apr-21.00 (TDB) Residual RMS= .11448 EC= .3916647205101159 QR= 35.88790727837637 TP= 2525575.907141929 OM= 187.1703133045093 W= 138.6060391018931 IN= 32.99057781326125 Equivalent ICRF heliocentric cartesian coordinates (au, au/d): X=-7.534325596625712E+01 Y= 2.566655391589607E+01 Z=-9.425859553892675E+00 VX=-2.631362661639556E-04 VY=-1.498793983972669E-03 VZ= 2.285108090550874E-04 Asteroid physical parameters (km, seconds, rotational period in hours): GM= n.a. RAD= n.a. ROTPER= n.a. H= 3.09 G= .150 B-V= n.a. ALBEDO= n.a. STYP= n.a. ******************************************************************************* JDTDB EC QR IN OM W Tp N MA TA A AD PR ******************************************************************************* $$SOE 2460000.500000000 = A.D. 2023-Feb-25 00:00:00.0000 TDB EC= 3.948949807307580E-01 QR= 3.557173349138959E+01 IN= 3.312065451875925E+01 OM= 1.870531061480689E+02 W = 1.392071430866262E+02 Tp= 2525552.334806085564 N = 2.188184027272058E-03 MA= 2.165605221189474E+02 TA= 1.976137133653143E+02 A = 5.878604929496036E+01 AD= 8.200036509853111E+01 PR= 1.645199834717745E+05 $$EOE ******************************************************************************* TIME Barycentric Dynamical Time ("TDB" or T_eph) output was requested. This continuous coordinate time is equivalent to the relativistic proper time of a clock at rest in a reference frame co-moving with the solar system barycenter but outside the system's gravity well. It is the independent variable in the solar system relativistic equations of motion. TDB runs at a uniform rate of one SI second per second and is independent of irregularities in Earth's rotation. CALENDAR SYSTEM Mixed calendar mode was active such that calendar dates after AD 1582-Oct-15 (if any) are in the modern Gregorian system. Dates prior to 1582-Oct-5 (if any) are in the Julian calendar system, which is automatically extended for dates prior to its adoption on 45-Jan-1 BC. The Julian calendar is useful for matching historical dates. The Gregorian calendar more accurately corresponds to the Earth's orbital motion and seasons. A "Gregorian-only" calendar mode is available if such physical events are the primary interest. REFERENCE FRAME AND COORDINATES Ecliptic at the standard reference epoch Reference epoch: J2000.0 X-Y plane: adopted Earth orbital plane at the reference epoch Note: IAU76 obliquity of 84381.448 arcseconds wrt ICRF X-Y plane X-axis : ICRF Z-axis : perpendicular to the X-Y plane in the directional (+ or -) sense of Earth's north pole at the reference epoch. Symbol meaning [1 au= 149597870.700 km, 1 day= 86400.0 s]: JDTDB Julian Day Number, Barycentric Dynamical Time EC Eccentricity, e QR Periapsis distance, q (au) IN Inclination w.r.t X-Y plane, i (degrees) OM Longitude of Ascending Node, OMEGA, (degrees) W Argument of Perifocus, w (degrees) Tp Time of periapsis (Julian Day Number) N Mean motion, n (degrees/day) MA Mean anomaly, M (degrees) TA True anomaly, nu (degrees) A Semi-major axis, a (au) AD Apoapsis distance (au) PR Sidereal orbit period (day) ABERRATIONS AND CORRECTIONS Geometric osculating elements have NO corrections or aberrations applied. Computations by ... Solar System Dynamics Group, Horizons On-Line Ephemeris System 4800 Oak Grove Drive, Jet Propulsion Laboratory Pasadena, CA 91109 USA General site: https://ssd.jpl.nasa.gov/ Mailing list: https://ssd.jpl.nasa.gov/email_list.html System news : https://ssd.jpl.nasa.gov/horizons/news.html User Guide : https://ssd.jpl.nasa.gov/horizons/manual.html Connect : browser https://ssd.jpl.nasa.gov/horizons/app.html#/x API https://ssd-api.jpl.nasa.gov/doc/horizons.html command-line telnet ssd.jpl.nasa.gov 6775 e-mail/batch https://ssd.jpl.nasa.gov/ftp/ssd/horizons_batch.txt scripts https://ssd.jpl.nasa.gov/ftp/ssd/SCRIPTS Author : Jon.D.Giorgini@jpl.nasa.gov ******************************************************************************* !$$SOF CENTER = '@0' COMMAND = '532037' OUT_UNITS = 'AU-D' START_TIME = 'JD2460000.5' STEP_SIZE = '1y' STOP_TIME = 'JD2460200.5' TABLE_TYPE = 'ELEMENTS'